Starlink 31980

operational
NORAD ID: 59962 Int'l Des: 2024-107 Owner: SPXS Country: US Constellation: starlink
LEOCIRCULAR

About Starlink 31980

Description loading...

Live Position

Loading 3D Globe...

Upcoming Passes

Altitude History

Altitude vs Time

uPlot chart will show altitude changes over time

Two-Line Element Set

1 59962U 24107T 25260.92267776 .00001474 00000-0 61892-4 0 9992
2 59962 53.1598 148.1137 0001141 84.6967 275.4164 15.30190154 73341
Epoch: Sep 17, 2025 • Age: 19 hours

Current Status

Altitude 476.1 km
Velocity 7.63 km/s
Sub-Earth Point 27.01°N, 40.32°E
Launch Date Jun 5, 2024
Age 1.2 years
Type internet

Technical Details

Classification Payload
Mass 730.00 kg
Dry Mass 700.00 kg
Total Mass 730.00 kg
Length 0.30 m
Diameter 4.10 m
Span 29.00 m
Shape Box + pan
Manufacturer SPXS
Bus Type Starlink V2M
Phase Status In Orbit
Owner/State SPXS/US

Large Constellations

Loading constellations...